Zurück zum Katalog

COSMOS 1109 DEB

LostHEO
NORAD 32976·DEBRIS·🇷🇺 Russia

Gestartet Jun 27, 1979 von Plesetsk Cosmodrome

Loading…

Nächste Überflüge (nächste 24 Stunden)

TLE

VeraltetSource: Space-Track

Epoche: Jul 25, 2010, 03:36 UTC

1 32976U 79058R   10206.15068909 -.00000340  00000-0  10000-3 0  9995
2 32976  67.7779 332.8901 6500909  67.6344 346.6862  1.91997357 68513

Verfolge COSMOS 1109 DEB in Echtzeit mit AllMySat

Download on the App Store